Location: Fort Wayne
(41.1310°N, 85.1290°W)
Time: 10:37:18
(UTC-05:00)

Daily predictions for brighter satellites

Satellite Brightness Start Highest point End
(mag) Time Altitude Azimuth Time Altitude Azimuth Time Altitude Azimuth
Cosmos 1980 3.9 18:37:02 10° NNW 18:42:35 51° ENE 18:48:06 10° SE
SeaSat 1 3.8 18:41:11 10° E 18:44:41 20° NE 18:48:10 10° N
NOSS 3-2 (C) 3.7 18:39:40 10° S 18:45:18 51° ESE 18:51:30 10° NE
NOSS 0 Rocket 3.9 18:40:22 10° NNW 18:46:34 72° ENE 18:52:46 10° SSE
Meteor 1-27 Rocket 3.9 18:41:21 10° N 18:47:15 83° E 18:53:11 10° S
Cosmos 1733 Rocket 3.6 18:45:25 10° SSE 18:49:22 37° E 18:53:21 10° NNE
Iridium 2 3.9 18:49:21 10° N 18:53:12 80° W 18:57:00 10° S
SKYMED 2 3.7 18:51:15 10° NNE 18:55:36 85° WNW 18:59:56 10° SSW
Okean 3 4.4 18:55:29 10° NNE 18:58:59 25° ENE 19:02:28 10° SE
Lacrosse 4 Rocket 4.4 18:56:41 10° WNW 18:59:55 21° WSW 19:03:12 10° SSW
MOS 1 4.3 18:54:21 10° SSE 19:00:01 81° ENE 19:05:42 10° NNW
Landsat 4 3.7 18:56:39 10° NNE 19:00:22 63° ESE 19:04:05 10° S
Shenzhou-11 Module 3.0 18:59:23 10° W 19:02:16 43° SSW 19:05:08 10° SE
CZ-4 R/B 3.7 19:05:36 10° SSW 19:09:11 29° W 19:12:43 10° NW
SJ-6B 3.9 19:07:10 10° ESE 19:10:10 23° ENE 19:13:12 10° NNE
SPOT 3 Rocket 3.5 19:05:16 10° SSE 19:10:27 79° ENE 19:15:41 10° N
DNEPR-1 R/B 3.4 19:06:16 10° SSW 19:10:28 78° ESE 19:14:46 10° NE
MTI 4.0 19:07:36 10° N 19:10:46 71° WNW 19:13:56 10° SSW
Cosmos 2056 Rocket 3.7 19:05:51 10° NNW 19:11:17 85° WSW 19:16:42 10° SSE
USA 267 4.3 19:08:44 11° ENE 19:13:48 29° NNE 19:19:13 10° NW
Cosmos 2084 Rocket 3.7 19:09:42 10° SW 19:14:06 72° NW 19:18:19 10° NNE
Cosmos 2233 Rocket 4.1 19:08:01 10° N 19:14:20 87° W 19:20:34 10° S
Cosmos 2219 Rocket 3.3 19:09:25 10° NW 19:14:51 48° WSW 19:20:14 10° S
Cosmos 1238 4.4 19:13:00 10° S 19:16:08 62° E 19:19:55 10° NNE
Cosmos 1452 Rocket 3.8 19:12:35 10° N 19:17:37 43° ENE 19:22:36 10° SE
CENTAUR R/B 3.0 19:12:36 10° S 19:17:55 36° ESE 19:23:53 10° NE
MOS 1-B Rocket 4.4 19:12:20 10° S 19:18:55 71° WSW 19:24:45 10° NNW
Meteor 1-14 Rocket 4.4 19:14:51 10° SSE 19:20:22 51° E 19:26:02 10° NNE
Okean 1 4.5 19:19:29 10° NNE 19:22:40 22° ENE 19:23:55 19° E
Cosmos 44 Rocket 4.1 19:18:23 10° NNW 19:22:55 33° NE 19:26:00 18° ESE
Tiangong 2 1.0 19:20:26 10° WNW 19:23:37 87° N 19:25:22 24° ESE
Cosmos 2227 Rocket 2.3 19:20:46 10° SSW 19:26:24 81° WNW 19:32:06 10° NNE
Cosmos 2237 Rocket 2.4 19:21:57 10° NNW 19:27:35 76° WSW 19:33:11 10° SSE
FREGAT/IRIS 2.5 19:25:59 10° SSE 19:28:53 62° ENE 19:31:50 10° N
Cosmos 1464 Rocket 4.1 19:23:18 10° N 19:29:16 52° ENE 19:35:14 10° SSE
Cosmos 405 2.9 19:26:15 10° S 19:29:44 86° W 19:33:16 10° N
SL-16 R/B 2.4 19:24:29 10° NNW 19:29:58 47° ENE 19:35:23 10° SE
Sich 1 Rocket 4.2 19:26:06 10° SSE 19:30:09 33° E 19:34:11 10° NNE
H-2A R/B 2.9 19:29:41 10° S 19:33:36 77° W 19:37:31 10° NNW
Cosmos 1378 Rocket 3.8 19:29:51 10° N 19:34:07 46° ENE 19:38:22 10° SSE
Cosmos 1782 Rocket 4.3 19:34:15 10° SSE 19:38:09 30° E 19:42:02 10° NNE
Iridium 4 Rocket 3.3 19:33:42 10° N 19:38:36 54° E 19:43:04 10° SSE
Cosmos 158 Rocket 3.8 19:34:22 10° S 19:39:09 57° ESE 19:43:56 10° NNE
Meteor 1-20 Rocket 4.2 19:34:00 10° S 19:39:33 61° E 19:45:16 10° NNE
Cosmos 1072 Rocket 4.4 19:33:24 10° N 19:39:35 70° E 19:45:50 10° SSE
Cosmos 1420 Rocket 4.1 19:35:05 10° N 19:40:17 56° ENE 19:45:29 10° SE
Cosmos 2297 Rocket 2.4 19:35:06 10° SSW 19:40:43 72° WNW 19:46:25 10° NNE
NOSS 3-2 (A) 4.3 19:38:21 10° WSW 19:44:06 49° NW 19:50:31 10° NNE
ATLAS 3B R/B 4.1 19:38:18 10° WSW 19:44:49 36° NW 19:51:09 10° NNE
Meteor 1-18 Rocket 4.1 19:39:59 10° N 19:45:35 66° ENE 19:51:05 10° SSE
CZ-2D R/B 3.4 19:43:08 13° SSE 19:46:25 52° ENE 19:50:14 10° N
Lacrosse 5 2.9 19:45:33 10° NW 19:50:21 45° SW 19:55:08 10° SSE
Cosmos 1812 3.3 19:49:42 10° NNW 19:53:31 58° W 19:57:18 10° S
FALCON 9 R/B 4.5 19:50:09 10° WSW 19:57:54 66° S 20:15:44 25° ESE
CRYOSAT 2 4.3 19:55:28 10° NNE 20:00:19 62° E 20:05:07 10° S
ERS-2 3.3 19:57:17 10° S 20:00:49 44° W 20:04:23 10° NNW
Meteor 1-25 Rocket 4.2 19:56:29 10° SSW 20:02:01 80° W 20:07:36 10° N
Cosmos 44 3.3 19:57:49 10° NNW 20:02:53 87° ENE 20:05:50 27° SSE
Cosmos 2034 Rocket 3.9 19:56:57 10° N 20:03:20 72° E 20:09:41 10° SSE
Thor Agena Rocket 3.4 19:58:55 10° NNE 20:04:03 80° ESE 20:09:05 10° SSW
Meteor 1-19 Rocket 4.4 19:58:56 10° N 20:04:12 43° ENE 20:05:04 40° E
BREEZE-M DEB (TANK) 3.8 20:03:20 10° SSW 20:05:46 37° SE 20:05:46 37° SE
Cosmos 1891 Rocket 4.4 20:00:48 10° N 20:07:05 90° SW 20:13:11 10° S
Cosmos 1939 Rocket 4.3 20:08:54 26° NNE 20:08:54 26° NNE 20:11:01 10° N
Cosmos 468 4.5 20:02:11 10° SSW 20:07:28 86° WNW 20:12:45 10° NNE
Cosmos 1437 Rocket 3.4 20:07:10 10° S 20:09:55 41° SSE 20:09:55 41° SSE
USA 32 4.0 20:07:14 10° S 20:12:28 87° W 20:17:43 10° N
Cosmos 1633 3.7 20:09:18 10° SSW 20:12:41 43° W 20:16:07 10° N
Envisat 2.9 20:08:11 10° SSE 20:13:15 88° ENE 20:18:22 10° NNW
Meteor 2-4 Rocket 4.4 20:10:13 10° N 20:14:43 36° NE 20:14:43 36° NE
CZ-4C R/B 4.0 20:10:37 10° NNW 20:16:09 24° NE 20:16:56 24° NE
Cosmos 1269 Rocket 3.9 20:11:43 10° S 20:16:56 67° ESE 20:18:51 39° NE
SL-8 R/B 3.7 20:13:00 10° WSW 20:17:47 79° NNW 20:18:36 60° NE
Cosmos 1908 Rocket 4.3 20:14:01 10° SSW 20:18:22 53° W 20:22:46 10° N
Cosmos 1816 Rocket 4.4 20:15:03 10° S 20:21:20 68° E 20:27:40 10° NNE
SeaSat 1 2.8 20:18:12 19° SSE 20:21:45 64° WSW 20:26:40 10° NNW
USA 215 3.5 20:18:48 22° NE 20:23:16 69° NW 20:29:45 10° WSW
Cosmos 2346 Rocket 4.4 20:18:03 10° S 20:24:07 59° E 20:30:11 10° NNE
ARGOS Delta rocket 4.0 20:19:44 10° N 20:24:40 72° WNW 20:29:17 10° SSW
Resurs 1-3 3.9 20:26:38 53° N 20:26:38 53° N 20:30:04 10° N
Resurs 01 Rocket 2.0 20:33:23 54° NNW 20:33:23 54° NNW 20:36:51 10° NNW
Cosmos 921 Rocket 3.2 20:29:27 10° NNW 20:33:43 74° WNW 20:33:43 74° WNW
OAO 2 Rocket 4.4 20:30:47 10° SW 20:34:20 32° SSW 20:34:20 32° SSW
Cosmos 1975 Rocket 3.7 20:41:19 10° NNW 20:45:11 53° WNW 20:45:11 53° WNW
Tsikada Rocket 4.4 20:48:22 10° SSW 20:54:41 62° W 21:01:04 10° N
USA 267 3.2 20:56:05 69° NE 20:56:06 69° NE 21:02:35 10° NW
Spot 2 Rocket 4.3 21:04:39 47° NW 21:04:39 47° NW 21:08:32 10° NNW
CENTAUR R/B 3.5 21:02:34 10° WSW 21:08:23 44° NW 21:11:51 25° N
SL-16 R/B 4.2 21:09:16 10° NW 21:13:44 24° WSW 21:17:32 13° SSW
CZ-4C R/B 4.1 21:58:27 10° NNW 22:02:09 35° NNW 22:02:09 35° NNW
